Location: Sternwarte Radebeul
(51.1160°N, 13.6224°E)
Time: 17:04:28
(UTC+01:00)

ISS - Pass Details

Date: 25 January 2020
Orbit: 415 x 422 km, 51.6° (Epoch: 26 February)

Event Time Altitude Azimuth Distance (km) Brightness Sun altitude
Rises 19:09:30 0° 255° (WSW) 2,376 1.4 -22.7°
Reaches altitude 10° 19:11:36 10° 254° (WSW) 1,511 0.1 -23.0°
Enters shadow 19:14:05 46° 249° (WSW) 582 -2.7 -23.4°
